#timestamp,LO_Frequency,Hit,Temp,Hum 
1479416415.6,286047006.1,N,0.0,0.0
1479416435.4,286047008.3,N,0.0,0.0
1479416455.2,286047008.4,N,0.0,0.0
1479416475.1,286047008.6,N,0.0,0.0
1479416476.0,286047008.6,N,0.0,0.0
1479416495.8,286047009.0,N,0.0,0.0
1479416515.7,286047008.9,N,0.0,0.0
1479416535.5,286047006.5,N,0.0,0.0
1479416555.3,286047009.2,N,0.0,0.0
1479416575.2,286047008.9,N,0.0,0.0
1479416595.0,286047008.3,N,0.0,0.0
1479416595.9,286047008.3,N,0.0,0.0
1479416615.8,286047008.5,N,0.0,0.0
1479416635.6,286047007.8,N,0.0,0.0
1479416655.4,286047010.0,N,0.0,0.0
1479416675.3,286047009.3,N,0.0,0.0
1479416695.1,286047012.4,N,0.0,0.0
1479416715.8,286047012.1,N,0.0,0.0
1479416735.7,286047011.0,N,0.0,0.0
1479416755.5,286047011.5,N,0.0,0.0
1479416775.4,286047010.2,N,0.0,0.0
1479416795.2,286047010.2,N,0.0,0.0
1479416815.0,286047009.6,N,0.0,0.0
1479416815.9,286047009.6,N,0.0,0.0
1479416835.8,286047012.0,N,0.0,0.0
1479416855.6,286047009.3,N,0.0,0.0
1479416875.4,286047009.4,N,0.0,0.0
1479416895.3,286047011.9,N,0.0,0.0
1479416915.1,286047011.3,N,0.0,0.0
1479416935.9,286047012.0,N,0.0,0.0
1479416955.7,286047012.0,N,0.0,0.0
1479416975.5,286047012.2,N,0.0,0.0
1479416995.4,286047013.6,N,0.0,0.0
1479417015.2,286047011.4,N,0.0,0.0
1479417035.0,286047010.9,N,0.0,0.0
1479417035.9,286047010.9,N,0.0,0.0
1479417055.8,286047013.5,N,0.0,0.0
1479417075.6,286047013.1,N,0.0,0.0
1479417095.5,286047013.9,N,0.0,0.0
1479417115.3,286047015.6,N,0.0,0.0
1479417135.1,286047015.3,N,0.0,0.0
1479417155.9,286047014.6,N,0.0,0.0
1479417175.7,286047012.9,N,0.0,0.0
1479417195.5,286047015.2,N,0.0,0.0
1479417215.4,286047015.2,N,0.0,0.0
1479417235.2,286047012.6,N,0.0,0.0
1479417255.1,286047013.4,N,0.0,0.0
1479417256.0,286047013.4,N,0.0,0.0
1479417275.8,286047012.6,N,0.0,0.0
1479417295.6,286047015.2,N,0.0,0.0
1479417315.5,286047014.3,N,0.0,0.0
1479417335.3,286047015.3,N,0.0,0.0
1479417355.2,286047014.4,N,0.0,0.0
1479417375.9,286047014.1,N,0.0,0.0
1479417395.7,286047018.8,N,0.0,0.0
1479417415.6,286047016.0,N,0.0,0.0
1479417435.4,286047016.8,N,0.0,0.0
1479417455.2,286047016.6,N,0.0,0.0
1479417475.1,286047018.6,N,0.0,0.0
1479417476.0,286047018.6,N,0.0,0.0
1479417495.8,286047015.9,N,0.0,0.0
1479417515.7,286047016.2,N,0.0,0.0
1479417535.5,286047018.8,N,0.0,0.0
1479417555.3,286047017.5,N,0.0,0.0
1479417575.2,286047017.8,N,0.0,0.0
1479417595.0,286047019.8,N,0.0,0.0
1479417595.9,286047019.8,N,0.0,0.0
1479417615.8,286047017.4,N,0.0,0.0
1479417635.6,286047019.7,N,0.0,0.0
1479417655.4,286047019.8,N,0.0,0.0
1479417675.3,286047019.1,N,0.0,0.0
1479417695.1,286047019.9,N,0.0,0.0
1479417715.8,286047019.7,N,0.0,0.0
1479417735.7,286047019.6,N,0.0,0.0
1479417755.5,286047019.6,N,0.0,0.0
1479417775.4,286047019.4,N,0.0,0.0
1479417795.2,286047019.0,N,0.0,0.0
1479417815.0,286047019.8,N,0.0,0.0
1479417815.9,286047019.8,N,0.0,0.0
1479417835.8,286047019.3,N,0.0,0.0
1479417855.6,286047019.2,N,0.0,0.0
1479417875.4,286047021.6,N,0.0,0.0
1479417895.3,286047020.5,N,0.0,0.0
1479417915.1,286047023.6,N,0.0,0.0
1479417935.9,286047022.7,N,0.0,0.0
1479417955.7,286047023.0,N,0.0,0.0
1479417975.5,286047020.5,N,0.0,0.0
1479417995.4,286047020.7,N,0.0,0.0
1479418015.2,286047023.2,N,0.0,0.0
1479418035.0,286047022.2,N,0.0,0.0
1479418035.9,286047022.2,N,0.0,0.0
1479418055.8,286047022.5,N,0.0,0.0
1479418075.6,286047024.9,N,0.0,0.0
1479418095.5,286047022.3,N,0.0,0.0
1479418115.3,286047024.9,N,0.0,0.0
1479418135.1,286047024.8,N,0.0,0.0
1479418155.9,286047024.9,N,0.0,0.0
1479418175.7,286047024.3,N,0.0,0.0
1479418195.5,286047026.6,N,0.0,0.0
1479418215.4,286047023.7,N,0.0,0.0
1479418235.2,286047026.7,N,0.0,0.0
1479418255.1,286047026.6,N,0.0,0.0
1479418256.0,286047026.6,N,0.0,0.0
1479418275.8,286047025.7,N,0.0,0.0
1479418295.6,286047025.3,N,0.0,0.0
1479418315.5,286047028.0,N,0.0,0.0
1479418335.3,286047027.9,N,0.0,0.0
1479418355.1,286047029.5,N,0.0,0.0
1479418375.9,286047029.7,N,0.0,0.0
1479418395.7,286047027.5,N,0.0,0.0
1479418415.6,286047026.9,N,0.0,0.0
1479418435.4,286047029.9,N,0.0,0.0
1479418455.2,286047029.6,N,0.0,0.0
1479418475.1,286047027.2,N,0.0,0.0
1479418476.0,286047027.2,N,0.0,0.0
1479418495.8,286047027.2,N,0.0,0.0
1479418515.6,286047029.6,N,0.0,0.0
1479418535.5,286047027.2,N,0.0,0.0
1479418555.3,286047029.6,N,0.0,0.0
1479418575.2,286047031.3,N,0.0,0.0
1479418595.9,286047030.5,N,0.0,0.0
1479418615.7,286047031.3,N,0.0,0.0
1479418635.6,286047031.1,N,0.0,0.0
1479418655.4,286047031.1,N,0.0,0.0
1479418675.3,286047031.0,N,0.0,0.0
1479418695.1,286047029.0,N,0.0,0.0
1479418696.0,286047029.0,N,0.0,0.0
1479418715.8,286047030.8,N,0.0,0.0
1479418735.7,286047030.6,N,0.0,0.0
1479418755.5,286047033.2,N,0.0,0.0
1479418775.3,286047031.0,N,0.0,0.0
1479418795.2,286047033.2,N,0.0,0.0
1479418815.0,286047032.1,N,0.0,0.0
1479418815.9,286047032.1,N,0.0,0.0
1479418835.8,286047033.9,N,0.0,0.0
1479418855.6,286047034.5,N,0.0,0.0
1479418875.4,286047033.6,N,0.0,0.0
1479418895.3,286047033.8,N,0.0,0.0
1479418915.1,286047036.3,N,0.0,0.0
1479418935.9,286047033.8,N,0.0,0.0
1479418955.7,286047036.3,N,0.0,0.0
1479418975.5,286047033.7,N,0.0,0.0
1479418995.4,286047038.0,N,0.0,0.0
1479419015.2,286047035.1,N,0.0,0.0
1479419035.0,286047035.5,N,0.0,0.0
1479419035.9,286047035.5,N,0.0,0.0
1479419055.8,286047035.3,N,0.0,0.0
1479419075.6,286047038.6,N,0.0,0.0
1479419095.5,286047039.4,N,0.0,0.0
1479419115.3,286047037.7,N,0.0,0.0
1479419135.1,286047037.3,N,0.0,0.0
1479419155.9,286047036.9,N,0.0,0.0
1479419175.7,286047038.4,N,0.0,0.0
1479419195.5,286047041.1,N,0.0,0.0
1479419215.4,286047042.7,N,0.0,0.0
1479419235.2,286047042.2,N,0.0,0.0
1479419255.1,286047040.0,N,0.0,0.0
1479419256.0,286047040.0,N,0.0,0.0
1479419275.8,286047041.2,N,0.0,0.0
1479419295.6,286047040.3,N,0.0,0.0
1479419315.5,286047042.3,N,0.0,0.0
1479419335.3,286047041.6,N,0.0,0.0
1479419355.2,286047041.9,N,0.0,0.0
1479419375.9,286047042.3,N,0.0,0.0
1479419395.7,286047041.9,N,0.0,0.0
1479419415.6,286047041.6,N,0.0,0.0
1479419435.4,286047041.7,N,0.0,0.0
1479419455.2,286047044.0,N,0.0,0.0
1479419475.1,286047041.4,N,0.0,0.0
1479419476.0,286047041.4,N,0.0,0.0
1479419495.8,286047044.0,N,0.0,0.0
1479419515.7,286047044.7,N,0.0,0.0
1479419535.5,286047046.7,N,0.0,0.0
1479419555.3,286047048.8,N,0.0,0.0
1479419575.2,286047050.3,N,0.0,0.0
1479419595.9,286047048.6,N,0.0,0.0
1479419615.7,286047048.3,N,0.0,0.0
1479419635.6,286047052.3,N,0.0,0.0
1479419655.4,286047049.4,N,0.0,0.0
1479419675.3,286047051.9,N,0.0,0.0
1479419695.1,286047049.3,N,0.0,0.0
1479419696.0,286047049.3,N,0.0,0.0
1479419715.8,286047049.8,N,0.0,0.0
1479419735.7,286047051.5,N,0.0,0.0
1479419755.5,286047049.4,N,0.0,0.0
1479419775.4,286047049.0,N,0.0,0.0
1479419795.2,286047047.8,N,0.0,0.0
1479419815.0,286047050.8,N,0.0,0.0
1479419815.9,286047050.8,N,0.0,0.0
1479419835.8,286047049.4,N,0.0,0.0
1479419855.6,286047049.3,N,0.0,0.0
1479419875.4,286047051.2,N,0.0,0.0
1479419895.3,286047053.1,N,0.0,0.0
1479419915.1,286047051.0,N,0.0,0.0
1479419935.9,286047052.0,N,0.0,0.0
1479419955.7,286047049.6,N,0.0,0.0
1479419975.5,286047049.3,N,0.0,0.0
1479419995.4,286047049.5,N,0.0,0.0
